[[{"header":{"parameterUnit":"m.s-1","parameterCategory":1,"la1":30.2991,"la2":30.254,"lo1":-89.0895,"lo2":-89.0444,"dy":0.0017,"dx":0.0017,"nx":28,"ny":28,"refTime":"2026-01-06T03:00:00:Z","depth":0,"parameterNumber":2,"parameterNumberName":"U-component_of_WINDS"},"data":[0,0,0,0,0,0,0,0,0,0,0,0,0,0,0,0,0,0,0,0,0,0,0,0,0,0,0,0,0,0,0,0,0,0,0,0,0,0,0,0,0,0,0,0,0,0,0,0,0,0,0,0,0,0,0,0,0,0,1.3809,1.3809,0,1.3829,1.3829,1.383,1.384,1.384,1.384,1.384,1.3861,1.3862,1.3862,0,0,0,0,0,0,0,0,0,0,0,0,0,1.3782,1.3783,1.3809,1.3809,1.381,1.3829,1.3829,1.383,1.384,1.384,1.384,1.384,1.3861,1.3862,1.3862,0,0,0,0,0,0,0,0,0,0,0,0,0,1.3797,1.3783,1.3809,1.3817,1.3818,1.3829,1.3829,1.383,1.384,1.384,1.384,1.384,1.3861,1.3862,1.3862,1.3867,0,0,1.3865,1.3865,0,0,0,0,0,0,0,0,1.3797,1.3798,1.3816,1.3817,1.3818,1.3832,1.3828,1.3842,1.384,1.3832,1.384,1.384,1.3852,1.3853,1.3857,1.3868,1.3869,1.3865,1.3865,1.3866,1.3866,0,0,0,0,0,0,0,1.3795,1.3798,1.3817,1.3816,1.3817,1.3821,1.3823,1.383,1.3841,1.3833,1.3833,1.3836,1.3852,1.3856,1.3857,1.3869,1.3865,1.3866,1.3866,1.3867,1.3888,1.3888,0,0,0,0,0,0,1.3793,1.3797,1.3816,1.3818,1.3807,1.3821,1.3823,1.3828,1.3841,1.3843,1.3835,1.3836,1.3855,1.3856,1.3858,1.3866,1.3866,1.3867,1.3867,1.3888,1.3888,1.3888,0,0,0,0,0,0,1.3792,1.3795,1.3816,1.3807,1.381,1.3822,1.3826,1.3828,1.3832,1.3843,1.3846,1.3837,1.3855,1.3857,1.3865,1.3867,1.3867,1.3868,1.3888,1.3888,1.3888,1.3881,0,0,0,0,0,0,1.3792,1.3794,1.3795,1.3807,1.3811,1.3822,1.3826,1.3828,1.3833,1.3834,1.3846,1.3848,1.3855,1.3864,1.3866,1.3868,1.3868,1.3888,1.3888,1.3888,1.3881,1.3881,1.388,0,0,0,0,0,1.3791,1.3792,1.3795,1.3798,1.3812,1.3822,1.3824,1.3832,1.3833,1.3835,1.3843,1.3847,1.3866,1.3865,1.3867,1.3869,1.3887,1.3888,1.3888,1.3881,1.3881,1.388,0,0,0,0,0,0,1.378,1.3794,1.3797,1.3803,1.3811,1.3823,1.3826,1.3831,1.3838,1.3839,1.3849,1.3851,1.3859,1.3865,1.3863,1.3876,1.3878,1.3878,1.3872,1.3871,1.3871,1.387,1.3869,0,0,0,0,0,1.3778,1.3784,1.3796,1.38,1.3804,1.3814,1.3818,1.3824,1.3833,1.3836,1.3845,1.3854,1.3862,1.3867,1.3875,1.3882,1.3886,1.3885,1.3885,1.3884,1.3885,1.3892,1.3892,1.3888,1.3888,1.3888,0,0,1.3774,1.3783,1.3786,1.3798,1.3805,1.3812,1.3817,1.3823,1.3829,1.3837,1.3846,1.3853,1.3863,1.3872,1.3876,1.3877,1.3887,1.3885,1.3884,1.3885,1.3892,1.3892,1.3892,1.3889,1.3889,1.3889,0,0,1.3772,1.3778,1.3783,1.379,1.3801,1.3808,1.3809,1.3821,1.3826,1.3835,1.3842,1.385,1.3863,1.3871,1.3877,1.388,1.3885,1.3882,1.3881,1.3887,1.3887,1.3888,1.389,1.3891,1.3883,1.3883,1.3883,0,1.3766,1.3776,1.3784,1.3791,1.3797,1.3806,1.3812,1.3818,1.3831,1.3836,1.3837,1.3855,1.3863,1.3874,1.3875,1.3879,1.3882,1.3881,1.3887,1.3887,1.3887,1.389,1.3891,1.3882,1.3882,1.3882,1.3882,0,1.3769,1.3776,1.3779,1.3792,1.3798,1.3804,1.3815,1.382,1.3826,1.3834,1.3844,1.3854,1.3865,1.3868,1.3873,1.3881,1.3882,1.3885,1.3887,1.3887,1.389,1.3891,1.3882,1.3882,1.3882,1.3882,0,0,1.3759,1.3778,1.3779,1.3786,1.3799,1.3805,1.3813,1.3824,1.383,1.3839,1.3846,1.3859,1.3862,1.3869,1.3875,1.3881,1.3885,1.3883,1.3884,1.3884,1.3896,1.3895,1.3896,1.3888,1.3889,1.3889,1.3896,0,1.3759,1.3772,1.3781,1.3791,1.3799,1.3809,1.3816,1.3826,1.3834,1.3842,1.3851,1.386,1.3863,1.3868,1.3873,1.3883,1.3888,1.3883,1.3897,1.3897,1.3895,1.3897,1.3894,1.3901,1.3897,1.3897,1.3897,0,1.376,1.3769,1.3781,1.3796,1.3799,1.3805,1.3818,1.3825,1.3837,1.3843,1.3852,1.3859,1.3869,1.387,1.3885,1.3881,1.3888,1.3894,1.3895,1.3897,1.3898,1.39,1.3902,1.3904,1.3899,1.3899,1.3898,0,1.3753,1.3769,1.3778,1.3783,1.3801,1.3805,1.3813,1.3825,1.3832,1.3843,1.3848,1.386,1.3867,1.3876,1.3887,1.3887,1.3902,1.3904,1.3908,1.3908,1.3911,1.3911,1.3915,1.3914,1.3914,1.3914,1.3914,0,1.3752,1.3759,1.3775,1.3781,1.379,1.3801,1.381,1.3818,1.3829,1.3838,1.3847,1.3855,1.3869,1.3879,1.3888,1.39,1.3902,1.3908,1.3911,1.3908,1.3907,1.3913,1.3913,1.3914,1.3914,1.3914,1.3914,0,1.3745,1.3756,1.3768,1.3784,1.3788,1.3794,1.3808,1.3815,1.3824,1.3835,1.3839,1.3853,1.3866,1.3878,1.3894,1.3901,1.3913,1.3916,1.3909,1.3911,1.3915,1.3915,1.3924,1.3927,1.3922,1.3922,1.3922,0,1.3744,1.375,1.3767,1.3774,1.3781,1.3791,1.3799,1.3811,1.3819,1.3835,1.384,1.3854,1.3865,1.3886,1.3898,1.3912,1.3915,1.3918,1.3917,1.3915,1.3917,1.3917,1.3919,1.3918,1.3918,1.3918,1.3918,0,1.3742,1.3748,1.3758,1.3771,1.378,1.3791,1.3802,1.3807,1.3822,1.3831,1.3844,1.3853,1.3871,1.3885,1.3901,1.391,1.3917,1.3918,1.392,1.3917,1.3914,1.3917,1.391,1.3917,1.3917,1.3917,1.3917,1.3917,1.3739,1.3745,1.3759,1.3771,1.3781,1.3792,1.38,1.3811,1.3822,1.3838,1.3845,1.3859,1.3873,1.3895,1.3904,1.3916,1.3918,1.392,1.3921,1.3922,1.3922,1.3911,1.3919,1.3919,1.3919,1.3919,1.3919,0,1.3738,1.3748,1.3759,1.3775,1.3785,1.3791,1.3805,1.3813,1.3825,1.3838,1.385,1.3866,1.3881,1.3895,1.3911,1.3918,1.3922,1.3922,1.3922,1.3924,1.3919,1.3916,1.3918,1.3918,1.3918,1.3918,1.3918,1.3918,1.3739,1.3751,1.3759,1.3776,1.3786,1.38,1.3808,1.3819,1.3829,1.3848,1.386,1.3869,1.3884,1.3901,1.3915,1.3919,1.3925,1.3924,1.3929,1.3924,1.3924,1.3924,1.3922,1.3925,1.3925,1.3933,1.3933,1.3933]},{"header":{"parameterUnit":"m.s-1","parameterCategory":1,"la1":30.2991,"la2":30.254,"lo1":-89.0895,"lo2":-89.0444,"dy":0.0017,"dx":0.0017,"nx":28,"ny":28,"refTime":"2026-01-06T03:00:00:Z","depth":0,"parameterNumber":3,"parameterNumberName":"V-component_of_WINDS"},"data":[0,0,0,0,0,0,0,0,0,0,0,0,0,0,0,0,0,0,0,0,0,0,0,0,0,0,0,0,0,0,0,0,0,0,0,0,0,0,0,0,0,0,0,0,0,0,0,0,0,0,0,0,0,0,0,0,0,0,1.8824,1.8825,0,1.8857,1.8858,1.8858,1.8868,1.8868,1.8867,1.8867,1.8897,1.8898,1.8899,0,0,0,0,0,0,0,0,0,0,0,0,0,1.8766,1.8767,1.8824,1.8825,1.8825,1.8857,1.8858,1.8858,1.8868,1.8868,1.8867,1.8867,1.8897,1.8898,1.8899,0,0,0,0,0,0,0,0,0,0,0,0,0,1.8794,1.8768,1.8824,1.8834,1.8835,1.8857,1.8858,1.8858,1.8868,1.8868,1.8867,1.8867,1.8897,1.8898,1.8899,1.8913,0,0,1.8904,1.8904,0,0,0,0,0,0,0,0,1.8793,1.8797,1.8832,1.8833,1.8835,1.8858,1.8848,1.8876,1.8868,1.8855,1.8867,1.8867,1.8884,1.8887,1.8893,1.8914,1.8916,1.8904,1.8905,1.8905,1.8906,0,0,0,0,0,0,0,1.8791,1.8795,1.8837,1.8833,1.8834,1.8835,1.8839,1.8854,1.8871,1.8856,1.8857,1.8861,1.8885,1.8892,1.8894,1.8916,1.8904,1.8905,1.8906,1.8907,1.8951,1.8951,0,0,0,0,0,0,1.8788,1.8793,1.8836,1.8838,1.8813,1.8837,1.8841,1.8851,1.8871,1.8873,1.8861,1.8862,1.889,1.8892,1.8895,1.8913,1.8905,1.8907,1.8908,1.895,1.8951,1.8951,0,0,0,0,0,0,1.8786,1.8791,1.8835,1.8816,1.8822,1.8838,1.8849,1.8852,1.8859,1.8874,1.8877,1.8866,1.889,1.8893,1.8909,1.8914,1.8907,1.8909,1.895,1.8951,1.8951,1.8949,0,0,0,0,0,0,1.8785,1.8791,1.8797,1.8816,1.8823,1.8849,1.8849,1.8852,1.8862,1.8862,1.8879,1.8882,1.889,1.8907,1.891,1.8916,1.891,1.895,1.895,1.8951,1.8948,1.8949,1.895,0,0,0,0,0,1.8783,1.8794,1.8797,1.8802,1.8831,1.8849,1.8853,1.8863,1.8862,1.8868,1.8878,1.8881,1.8913,1.8908,1.8912,1.8919,1.8949,1.895,1.8951,1.8948,1.8949,1.895,0,0,0,0,0,0,1.8773,1.8797,1.8801,1.8819,1.8832,1.8851,1.8859,1.8863,1.8876,1.8876,1.8887,1.8891,1.8906,1.8914,1.8908,1.8933,1.8931,1.8933,1.8928,1.8929,1.8929,1.8927,1.8911,0,0,0,0,0,1.8774,1.8788,1.8807,1.8821,1.8828,1.8842,1.8851,1.8857,1.8871,1.8876,1.8888,1.89,1.8913,1.8921,1.8934,1.8949,1.8953,1.8956,1.8956,1.8957,1.8958,1.8967,1.8969,1.8953,1.8953,1.8953,0,0,1.8774,1.8789,1.8797,1.882,1.8831,1.8845,1.8847,1.8861,1.8871,1.8878,1.8895,1.8903,1.8917,1.8933,1.8941,1.894,1.8963,1.8958,1.8958,1.8959,1.8968,1.897,1.8971,1.8954,1.8954,1.8954,0,0,1.8782,1.8795,1.8808,1.882,1.8837,1.8847,1.885,1.8868,1.8875,1.8892,1.8898,1.8909,1.8931,1.8941,1.8949,1.8962,1.8965,1.8965,1.8969,1.8978,1.8979,1.898,1.8985,1.8987,1.8966,1.8966,1.8966,0,1.878,1.8802,1.8814,1.8829,1.8839,1.8847,1.8861,1.8871,1.8891,1.8897,1.8896,1.8925,1.8935,1.8954,1.8957,1.8963,1.8967,1.8964,1.8978,1.8979,1.8981,1.8986,1.8987,1.8966,1.8966,1.8966,1.8966,0,1.8799,1.8814,1.8823,1.8844,1.8855,1.8869,1.8882,1.8891,1.8897,1.8906,1.8923,1.8936,1.8952,1.8956,1.8961,1.8976,1.8976,1.8976,1.8975,1.8982,1.8987,1.8989,1.8966,1.8966,1.8966,1.8966,0,0,1.8802,1.8831,1.8834,1.8844,1.8864,1.8876,1.8889,1.8906,1.8914,1.8928,1.894,1.8958,1.896,1.8969,1.8975,1.8983,1.8993,1.8983,1.8983,1.8985,1.901,1.901,1.9012,1.8995,1.8995,1.8996,1.9009,0,1.8813,1.8841,1.8852,1.8873,1.8888,1.8896,1.8908,1.8921,1.8931,1.8943,1.8952,1.8966,1.8966,1.8972,1.898,1.899,1.8998,1.8989,1.9006,1.9006,1.9003,1.9015,1.9015,1.9027,1.9011,1.9012,1.9012,0,1.883,1.8846,1.8869,1.8889,1.8895,1.8906,1.8923,1.8935,1.895,1.8956,1.8966,1.8973,1.8987,1.8984,1.9003,1.8997,1.9004,1.901,1.9011,1.9013,1.901,1.9018,1.9031,1.9033,1.9015,1.9015,1.9014,0,1.8831,1.8857,1.8875,1.8883,1.8906,1.8914,1.8924,1.8938,1.8948,1.8962,1.8969,1.8983,1.8992,1.9003,1.9012,1.9009,1.9031,1.9029,1.9036,1.9036,1.9041,1.9041,1.9056,1.9045,1.9045,1.9044,1.9044,0,1.8843,1.8857,1.8876,1.8887,1.8903,1.8916,1.8931,1.894,1.8954,1.8966,1.8973,1.8985,1.8997,1.9009,1.9016,1.9032,1.9035,1.904,1.9042,1.904,1.904,1.9046,1.9045,1.9045,1.9045,1.9045,1.9045,0,1.8846,1.886,1.888,1.8901,1.8906,1.8917,1.8934,1.8945,1.8954,1.897,1.8974,1.8989,1.9004,1.9015,1.9034,1.9039,1.9056,1.9057,1.9051,1.9052,1.906,1.9059,1.908,1.9083,1.9069,1.9069,1.9069,0,1.8853,1.8865,1.8887,1.8897,1.8907,1.8922,1.8933,1.8945,1.8955,1.8974,1.8982,1.8998,1.9011,1.9035,1.9047,1.9061,1.9064,1.907,1.9066,1.9064,1.9065,1.9064,1.9066,1.9071,1.9071,1.9071,1.9071,0,1.8864,1.8871,1.8886,1.8905,1.8917,1.8932,1.8946,1.8953,1.8968,1.8979,1.8996,1.9006,1.9027,1.9042,1.9058,1.9067,1.9071,1.9072,1.9075,1.9073,1.907,1.9072,1.9054,1.9072,1.9072,1.9071,1.9071,1.9071,1.887,1.8881,1.8899,1.8916,1.8929,1.8942,1.8954,1.8966,1.898,1.8999,1.9005,1.9022,1.9037,1.9059,1.9068,1.9081,1.908,1.9084,1.9085,1.9086,1.9086,1.9067,1.9084,1.9084,1.9084,1.9084,1.9084,0,1.8882,1.8895,1.891,1.8931,1.8945,1.8949,1.8965,1.8976,1.8992,1.9006,1.902,1.9039,1.9054,1.9068,1.9084,1.9091,1.9094,1.9095,1.9095,1.9097,1.9085,1.9082,1.9093,1.9093,1.9093,1.9093,1.9093,1.9093,1.889,1.8909,1.8918,1.8943,1.8955,1.8973,1.8982,1.8995,1.9006,1.9028,1.9042,1.9051,1.9064,1.9082,1.9096,1.9099,1.9105,1.9106,1.911,1.9099,1.9098,1.9097,1.9094,1.9107,1.9107,1.9121,1.9121,1.9121]}]]